TimeMST,TemperatureF,Dew PointF,Humidity,Sea Level PressureIn,VisibilityMPH,Wind Direction,Wind SpeedMPH,Gust SpeedMPH,PrecipitationIn,Events,Conditions,WindDirDegrees,DateUTC
12:53 AM,24.1,1.9,38,30.46,10.0,Calm,Calm,-,N/A,,Clear,0,2011-11-27 07:53:00
1:53 AM,25.0,3.9,41,30.44,10.0,WSW,8.1,-,N/A,,Clear,240,2011-11-27 08:53:00
2:53 AM,25.0,3.0,39,30.43,10.0,SSW,3.5,-,N/A,,Clear,210,2011-11-27 09:53:00
3:53 AM,21.0,3.9,48,30.46,10.0,Calm,Calm,-,N/A,,Clear,0,2011-11-27 10:53:00
4:53 AM,21.9,5.0,48,30.46,10.0,Calm,Calm,-,N/A,,Clear,0,2011-11-27 11:53:00
5:53 AM,19.0,6.1,57,30.48,10.0,South,9.2,-,N/A,,Clear,170,2011-11-27 12:53:00
6:53 AM,21.0,7.0,55,30.49,10.0,South,9.2,-,N/A,,Clear,170,2011-11-27 13:53:00
7:53 AM,30.2,10.4,44,30.35,10.0,South,4.6,-,N/A,,Clear,190,2011-11-27 14:53:00
8:53 AM,39.0,14.0,36,30.42,10.0,Calm,Calm,-,N/A,,Clear,0,2011-11-27 15:53:00
9:53 AM,50.0,10.0,20,30.37,10.0,SSW,5.8,-,N/A,,Clear,200,2011-11-27 16:53:00
10:53 AM,55.9,8.1,15,30.32,10.0,Variable,4.6,-,N/A,,Clear,0,2011-11-27 17:53:00
11:53 AM,57.9,9.0,14,30.29,10.0,Calm,Calm,-,N/A,,Partly Cloudy,0,2011-11-27 18:53:00
12:53 PM,59.0,8.1,13,30.22,10.0,SW,3.5,-,N/A,,Partly Cloudy,220,2011-11-27 19:53:00
1:53 PM,61.0,10.0,13,30.19,10.0,NW,4.6,-,N/A,,Partly Cloudy,320,2011-11-27 20:53:00
2:53 PM,62.1,10.9,13,30.18,10.0,Calm,Calm,-,N/A,,Partly Cloudy,0,2011-11-27 21:53:00
3:53 PM,61.0,12.0,15,30.19,10.0,Calm,Calm,-,N/A,,Partly Cloudy,0,2011-11-27 22:53:00
4:53 PM,53.1,10.9,19,30.21,10.0,Calm,Calm,-,N/A,,Partly Cloudy,0,2011-11-27 23:53:00
5:53 PM,46.9,12.0,24,30.25,10.0,SSE,6.9,-,N/A,,Partly Cloudy,150,2011-11-28 00:53:00
6:53 PM,46.0,12.9,26,30.23,10.0,SSW,8.1,-,N/A,,Partly Cloudy,200,2011-11-28 01:53:00
7:53 PM,45.0,12.9,27,30.18,10.0,SSW,9.2,-,N/A,,Partly Cloudy,210,2011-11-28 02:53:00
8:53 PM,46.9,10.9,23,30.12,10.0,SW,11.5,-,N/A,,Partly Cloudy,220,2011-11-28 03:53:00
9:53 PM,46.9,9.0,21,30.07,10.0,SSW,15.0,-,N/A,,Partly Cloudy,210,2011-11-28 04:53:00
10:53 PM,44.1,10.0,25,30.06,10.0,SW,9.2,-,N/A,,Partly Cloudy,230,2011-11-28 05:53:00
11:53 PM,41.0,10.0,28,30.06,10.0,SW,9.2,-,N/A,,Partly Cloudy,230,2011-11-28 06:53:00